Regional Weather Roundup
Issued by NWS

Home | Current Version | Previous Version | Graphics & Text | Print | Product List | Glossary Off
Versions: 1 2 3 4 5 6 7 8 9 10 11 12 13 14 15 16 17 18 19 20 21 22 23 24 25 26 27 28 29 30 31 32 33 34 35 36 37 38 39 40 41 42 43 44 45 46 47 48 49 50

711
ASUS44 KLIX 182310
RWRLA
LOUISIANA WEATHER ROUNDUP
NATIONAL WEATHER SERVICE NEW ORLEANS LA
600 PM CDT FRI APR 18 2014

NOTE: "FAIR" INDICATES FEW OR NO CLOUDS BELOW 12,000 FEET WITH NO
      SIGNIFICANT WEATHER AND/OR OBSTRUCTIONS TO VISIBILITY.
      SKY/WX - SKY CONDITION AND SIGNIFICANT WEATHER.
      TMP - AIR TEMPERATURE.    DP   - DEWPOINT TEMPERATURE.
      RH  - RELATIVE HUMIDITY.  PRES - PRESSURE.
      HX  - HEAT INDEX.         WCI  - WIND CHILL INDEX.

*  THESE STATIONS ARE NOT NWS OR FAA STATIONS AND ARE NOT UNDER
   NWS QUALITY CONTROL.

LAZ040-048-061>063-065-066-069-190000-
SOUTHEAST LOUISIANA

CITY           SKY/WX    TMP DP  RH WIND       PRES   REMARKS
N.O. AUDUBON   NOT AVBL
N.O. INTL ARPT PTSUNNY   70  58  65 NE15G23   30.06S
N.O. LAKEFRONT CLOUDY    68  60  75 NE17      30.09R
N.O. DOWNTOWN* CLOUDY    72  55  56 N12G17    30.08R
SLIDELL        CLOUDY    67  56  67 NE10      30.08R
BATON ROUGE    PTSUNNY   72  62  71 NW5       30.06S
BOOTHVILLE     CLOUDY    64  59  83 N10G20    30.05S
BELLE CHASSE   PTSUNNY   69  55  60 NE13G21   30.07R
BOGALUSA*        N/A     69  56  61 NE7       30.10S
GALLIANO*      MOCLDY    72  58  61 N13       30.06R
NEW ROADS*     CLOUDY    71  58  64 NE14      30.08R
GONZALES*      FAIR      75  57  53 N5        30.05S
HAMMOND*       MOSUNNY   73  54  49 NE8       30.08S
HOUMA*         MOSUNNY   75  55  50 NE14      30.05R
PORT FOURCHON* PTCLDY    72  59  64 NE14G21   30.07R

$$

LAZ041-044-053-054-190000-
SOUTHWEST LOUISIANA

CITY           SKY/WX    TMP DP  RH WIND       PRES   REMARKS
LAKE CHARLES   PTSUNNY   76  56  49 NE15      30.07F
LAFAYETTE      MOSUNNY   72  60  66 N10       30.08R
PATTERSON      CLOUDY    73  59  60 N14       30.08R
SALT POINT       N/A     79  58  48 CALM      30.03S
NEW IBERIA     MOSUNNY   74  60  61 N13       30.07S
CHENAULT AIRPK MOSUNNY   73  54  49 NE8       30.09

$$

LAZ027-028-190000-
CENTRAL LOUISIANA

CITY           SKY/WX    TMP DP  RH WIND       PRES   REMARKS
FORT POLK      PTSUNNY   71  56  58 N6        30.09F
ALEXANDRIA INT CLOUDY    72  57  59 N3        30.09R
ALEXANDRIA     PTSUNNY   75  56  51 VRB6      30.09S

$$

LAZ001-002-190000-
NORTHWEST LOUISIANA

CITY           SKY/WX    TMP DP  RH WIND       PRES   REMARKS
SHREVEPORT     MOSUNNY   73  52  47 NE9       30.11S
BARKSDALE AFB  SUNNY     73  51  46 NE5       30.11F
DTN SHREVEPORT SUNNY     71  51  49 E6        30.11F

$$

LAZ014-016-190000-
NORTHEAST LOUISIANA

CITY           SKY/WX    TMP DP  RH WIND       PRES   REMARKS
MONROE         CLOUDY    71  55  56 NE5       30.12S
TALLULAH       PTSUNNY   72  56  57 NE9       30.10F

$$




USA.gov is the U.S. government's official web portal to all federal, state and local government web resources and services.